Location: Stonelick Lake State Park
(39.2170°N, 84.0850°W)
Time: 00:08:18
(UTC-04:00)

Daily predictions for brighter satellites

Satellite Brightness Start Highest point End
(mag) Time Altitude Azimuth Time Altitude Azimuth Time Altitude Azimuth
Lacrosse 5 4.0 00:00:25 10° W 00:04:42 27° NNW 00:09:01 10° NNE
CZ-4 R/B 4.4 00:10:47 10° NNE 00:14:51 42° E 00:14:51 42° E
Cosmos 1709 Rocket 3.9 00:11:44 10° N 00:18:00 90° W 00:19:27 56° S
SL-14 R/B 4.5 00:19:42 33° W 00:19:59 34° WNW 00:23:35 10° N
ALOS 2 4.1 00:20:27 26° ENE 00:20:28 26° ENE 00:24:06 10° NNE
Cosmos 2278 Rocket 2.4 00:20:26 39° SW 00:22:30 68° WNW 00:28:10 10° NNE
NOSS 3-4 (A) 3.4 00:20:16 39° SW 00:22:44 86° WNW 00:29:09 10° NNE
NOSS 3-4 (C) 3.4 00:20:26 40° SW 00:22:48 87° WNW 00:29:15 10° NNE
NOSS 2-2 (E) 4.1 00:24:27 46° NE 00:24:27 46° NE 00:27:37 10° NE
Aureole 3 Rocket 4.3 00:23:27 42° S 00:26:36 88° W 00:32:56 10° N
COSMOS 2406 4.1 00:24:27 10° NW 00:29:41 37° WSW 00:30:39 34° SW
Cosmos 2074 Rocket 4.5 00:24:13 10° N 00:30:14 46° ENE 00:31:22 42° ESE
Cosmos 1461 3.6 00:34:21 52° W 00:35:01 58° NW 00:39:45 10° NNE
CENTAUR R/B 3.7 00:29:09 10° NNW 00:36:54 52° NE 00:41:25 28° ESE
Cosmos 1766 Rocket 3.8 00:37:40 64° NE 00:37:40 64° NE 00:41:33 10° N
Cosmos 1408 Rocket 4.0 00:40:10 55° NE 00:40:10 55° NE 00:43:52 10° NNE
ADEOS Rocket 3.2 00:36:44 10° NNE 00:42:33 53° E 00:43:06 52° ESE
Cosmos 2315 Rocket 4.4 00:41:44 40° SW 00:43:43 56° W 00:49:58 10° N
COBE Rocket 4.4 00:39:19 10° N 00:44:16 57° WNW 00:45:03 51° WSW
USA 234 3.6 00:40:27 10° ENE 00:46:17 45° ESE 00:46:17 45° ESE
RESURS DK-1 3.4 00:50:15 39° NE 00:50:15 39° NE 00:52:59 10° NNE
Cosmos 1703 4.2 00:50:17 47° NNW 00:50:17 47° NNW 00:53:11 10° N
Cosmos 1151 Rocket 4.3 00:45:54 10° NNE 00:49:07 31° ENE 00:49:07 31° ENE
SL-27 R/B 4.1 00:47:19 10° N 00:49:37 34° N 00:49:37 34° N
Meteor 1-27 4.1 00:46:41 10° N 00:52:33 85° ENE 00:53:08 74° SSE
NOSS 2-2 (D) 4.1 00:53:56 51° NNW 00:53:56 51° NNW 00:57:31 10° NNE
H-2A R/B 3.3 00:53:56 32° NE 00:53:56 32° NE 00:57:04 10° N
H-2A R/B 4.1 00:49:48 36° SSW 00:53:36 50° SSE 05:48:11 10° ESE
Cosmos 2369 Rocket 4.2 00:55:50 15° E 00:55:50 15° E 00:58:16 10° ENE
Cosmos 2297 3.6 01:01:31 75° SW 01:02:00 84° WNW 01:07:45 10° NNE
Meteor 2-10 Rocket 4.2 01:00:01 10° N 01:04:55 43° ENE 01:05:02 43° E
Cosmos 2184 Rocket 3.8 00:58:49 10° N 01:05:12 85° E 01:06:02 69° SSE
Terra 4.3 01:06:06 11° W 01:06:43 11° W 01:08:12 10° WNW
Mayak -0.6 01:04:24 10° N 01:07:41 54° N 01:07:41 54° N
Cosmos 2228 Rocket 3.8 01:04:55 10° N 01:08:37 48° NE 01:08:37 48° NE
Meteor 2-21 4.4 01:04:02 10° N 01:10:04 69° E 01:10:42 64° ESE
Cosmos 2154 Rocket 4.3 01:05:34 10° N 01:11:48 55° E 01:12:47 50° ESE
Cosmos 2082 Rocket 2.1 01:06:09 10° NNW 01:11:53 79° WSW 01:12:02 79° SW
ATLAS 5 CENTAUR R/B 2.5 01:14:00 41° WNW 01:14:34 43° NW 01:19:15 10° NNE
ATLAS 3B R/B 3.7 01:10:30 10° NW 01:16:00 29° WSW 01:16:10 29° WSW
Cosmos 2151 3.7 01:20:45 52° NNW 01:20:45 52° NNW 01:24:05 10° N
Cosmos 1833 Rocket 2.9 01:15:39 10° NNW 01:20:59 57° W 01:20:59 57° W
CZ-4C R/B 4.4 01:24:27 44° NNW 01:24:27 44° NNW 01:27:13 10° NNW
Cosmos 1743 Rocket 4.2 01:31:36 54° NNW 01:31:36 54° NNW 01:35:10 10° N
Cosmos 1455 4.4 01:35:06 10° NW 01:36:45 19° WNW 01:36:45 19° WNW
CZ-4B R/B 3.8 01:34:00 10° N 01:39:13 61° WNW 01:39:27 61° W
Cosmos 2058 4.5 01:42:06 29° WNW 01:42:06 29° WNW 01:45:08 10° NNW
Cosmos 1943 Rocket 3.2 01:45:58 32° E 01:45:58 32° E 01:50:27 10° NE
BREEZE-M R/B 4.3 01:42:04 10° WNW 01:47:42 68° SW 01:48:58 56° SSE
Sich 1 4.5 01:49:47 30° ENE 01:49:47 30° ENE 01:52:55 10° NNE
Meteor 2-16 Rocket 4.3 01:43:07 10° N 01:49:17 88° W 01:49:53 74° S
Nadezhda 1 Rocket 4.4 01:50:33 47° WSW 01:51:40 52° W 01:57:55 10° N
MOS 1 Rocket 3.9 01:48:02 10° NNE 01:52:22 48° ENE 01:52:22 48° ENE
Cosmos 1892 4.5 01:56:16 27° NE 01:56:16 27° NE 01:58:27 10° NNE
Cosmos 1140 Rocket 3.4 01:55:35 81° NNE 01:55:35 81° NNE 02:00:28 10° NNE
ALOS 2 4.3 01:57:50 24° WNW 01:57:50 24° WNW 02:00:25 10° NW
Cosmos 676 Rocket 4.0 01:58:15 74° WNW 01:58:15 74° WNW 02:03:22 10° NNE
Cosmos 1954 Rocket 3.9 01:58:39 82° NNW 01:58:39 82° NNW 02:03:38 10° NNE
Cosmos 1707 Rocket 4.4 02:01:15 10° N 02:05:04 43° ENE 02:05:04 43° ENE
Cosmos 407 Rocket 4.4 02:05:42 36° W 02:06:14 37° WNW 02:11:01 10° N
Cosmos 614 Rocket 4.0 02:06:25 67° WNW 02:06:25 67° WNW 02:11:32 10° NNE
Cosmos 1633 Rocket 4.2 02:08:40 36° ENE 02:08:40 36° ENE 02:12:13 10° NNE
Cosmos 304 Rocket 4.1 02:20:32 10° N 02:25:15 57° ENE 02:25:31 56° E
SL-24 R/B 4.5 02:21:16 10° N 02:26:10 78° WNW 02:26:24 76° WSW
Meteor 2-3 Rocket 4.1 02:25:50 49° ESE 02:26:38 53° E 02:32:14 10° NNE
CENTAUR R/B 3.6 02:20:07 10° NW 02:27:39 41° WSW 02:28:34 40° SW
PSLV R/B 3.8 02:22:54 10° NNE 02:27:27 82° NNE 02:27:27 82° NNE
H-2A R/B 4.3 02:31:02 14° WNW 02:31:02 14° WNW 02:32:13 10° NW
USA 234 3.9 02:23:24 10° NE 02:29:43 52° NW 02:33:36 24° W
Cosmos 1666 Rocket 3.8 02:31:34 66° N 02:31:34 66° N 02:35:19 10° N
Resurs 1-4 Rocket 4.0 02:28:21 10° NE 02:32:04 19° E 02:33:30 17° ESE
Cosmos 371 Rocket 4.3 02:30:09 10° NW 02:33:38 35° WNW 02:33:38 35° WNW
Cosmos 2369 Rocket 2.3 02:37:37 59° WSW 02:38:21 66° WNW 02:44:00 10° NNE
SL-08 R/B 4.5 02:32:42 10° N 02:38:49 74° E 02:40:17 53° SSE
Cosmos 1850 Rocket 3.8 02:40:46 78° WSW 02:41:01 81° WNW 02:46:17 10° NNE
BREEZE-M DEB (TANK) 3.8 02:42:16 47° SW 02:44:17 75° SSE 02:47:40 10° ENE
Lacrosse 4 Rocket 2.8 02:52:46 29° ESE 02:52:46 29° ESE 02:56:22 10° NE
GP-B 3.9 02:48:42 10° NNE 02:52:56 43° E 02:53:22 41° ESE
Cosmos 2098 Rocket 4.5 02:47:32 10° NNW 02:54:45 54° W 02:56:17 46° SW
Cosmos 2242 Rocket 3.8 02:53:19 10° N 02:57:47 63° E 02:58:04 61° ESE
ARIANE 5 R/B 4.5 02:57:56 10° NE 03:01:25 19° E 03:03:29 15° ESE
Cosmos 1606 3.1 03:01:59 10° N 03:05:33 57° ENE 03:05:33 57° ENE
Cosmos 1763 Rocket 4.4 03:01:46 10° N 03:06:37 44° ENE 03:09:28 22° SE
Cosmos 1825 2.5 03:07:42 63° N 03:07:42 63° N 03:10:55 10° N
Cosmos 405 3.9 03:15:32 41° NNW 03:15:32 41° NNW 03:18:12 10° N
Cosmos 1656 Rocket 3.6 03:14:34 55° S 03:15:52 79° ESE 03:21:32 10° NNE
Cosmos 1408 3.3 03:18:48 45° NW 03:18:48 45° NW 03:21:50 10° N
CZ-4B R/B 2.9 03:20:24 28° NNW 03:20:24 28° NNW 03:22:03 10° NNW
Cosmos 1867 3.8 03:20:08 47° SSE 03:21:18 57° ESE 03:26:39 10° NE
BREEZE-M DEB (TANK) 4.3 03:20:29 10° NNW 03:22:27 24° NNE 03:25:32 10° E
Cosmos 1833 4.0 03:19:58 10° NNW 03:25:35 85° WSW 03:27:45 39° SSE
Spot 2 4.4 03:24:14 10° N 03:28:27 50° WNW 03:28:44 49° W
Cosmos 1943 Rocket 3.3 03:27:29 27° W 03:29:13 33° WNW 03:34:15 10° N
Meteor 2-6 Rocket 4.3 03:24:05 10° N 03:29:27 67° E 03:32:08 30° SSE
NPP 3.6 03:24:11 10° NNE 03:29:36 89° E 03:31:12 48° SSW
Cosmos 1437 Rocket 4.2 03:29:54 27° SE 03:31:05 33° E 03:34:47 10° NNE
Cosmos 1862 Rocket 3.7 03:27:30 10° NNW 03:31:54 55° W 03:32:05 55° WSW
Cosmos 1703 Rocket 4.2 03:28:30 10° N 03:32:49 51° E 03:34:33 31° SE
Cosmos 2208 Rocket 4.3 03:30:27 10° NNW 03:35:38 51° WSW 03:36:31 46° SW
Cosmos 1818 3.6 03:30:32 10° NNW 03:36:02 80° ENE 03:40:38 15° SE
Cosmos 841 Rocket 4.0 03:30:59 10° N 03:36:07 57° ENE 03:40:08 16° SE
CZ-2D R/B 2.1 03:34:48 10° NNE 03:40:08 80° ESE 03:42:08 40° S
AQUA 3.7 03:35:51 10° NNE 03:40:39 87° WNW 03:41:55 50° SSW
Cosmos 1782 2.7 03:37:01 10° NNW 03:40:56 65° W 03:41:03 65° WSW
ADEOS II 4.2 03:40:11 10° NE 03:43:55 19° E 03:47:37 10° SE
Cosmos 468 Rocket 4.2 03:38:58 10° NNW 03:43:55 50° WSW 03:44:48 45° SW
Okean 1-7 3.7 03:41:18 10° N 03:45:37 51° E 03:47:59 24° SE
Meteor 1-10 Rocket 4.1 03:41:32 10° N 03:47:07 85° W 03:49:55 31° S
IRS-1D 3.5 03:42:57 10° NNE 03:48:06 76° ESE 03:50:07 37° S
Meteor 1-27 Rocket 4.2 03:44:00 10° N 03:49:46 61° E 03:54:47 14° SSE
SL-16 R/B 2.4 03:46:32 29° S 03:49:56 77° WSW 03:56:08 10° NNW
Cosmos 2219 4.4 03:45:58 10° N 03:51:20 42° ENE 03:56:38 10° SE
IRS-P3 4.2 03:46:31 10° N 03:51:49 65° WNW 03:53:47 38° SW
PSLV R/B 3.4 03:52:36 57° N 03:52:41 57° N 03:55:37 10° E
H-2A R/B 2.2 03:50:52 10° N 03:54:52 74° WNW 03:55:37 55° SW
UNK 3.7 03:55:00 42° SSW 03:56:24 63° W 04:01:03 10° NNW
Meteor 1-4 Rocket 3.5 03:56:02 30° SE 03:57:15 41° E 04:00:44 10° NNE
PSLV R/B 4.2 03:58:15 25° SSE 04:00:40 71° ENE 04:04:52 10° N
Cosmos 1535 Rocket 4.4 03:55:05 10° N 04:01:11 77° W 04:04:57 25° S
SL-24 DEB 4.3 04:00:14 41° SSW 04:01:38 60° W 04:06:14 10° NNW
Cosmos 1605 Rocket 4.2 03:59:09 10° N 04:05:14 68° E 04:11:12 11° SSE
Cosmos 1486 Rocket 4.0 04:03:11 35° SSW 04:05:26 76° WNW 04:10:47 10° NNE
GPS 2-04 Rocket1 4.4 04:06:03 20° SSE 04:06:03 20° SSE 04:08:49 10° ESE
Resurs 1-4 Rocket 2.5 04:07:00 10° N 04:12:09 51° WNW 04:14:35 29° SW
Cosmos 1862 3.6 04:12:47 39° WSW 04:13:44 48° W 04:17:35 10° N
Cosmos 2297 Rocket 4.3 04:14:44 10° N 04:19:36 29° ENE 04:24:26 10° ESE
Cosmos 44 3.3 04:17:36 29° SSW 04:19:52 68° ESE 04:24:46 10° NE
SAR-Lupe-2 4.4 04:17:03 11° SSE 04:20:18 51° ENE 04:23:48 10° N
Cosmos 1934 Rocket 4.1 04:16:43 10° NNW 04:22:55 58° W 04:27:12 20° SSW
Cosmos 389 Rocket 3.8 04:21:40 15° SSE 04:24:12 37° E 04:27:35 10° NNE
ATLAS CENTAUR Rocket 3.3 04:26:13 19° S 04:27:20 21° SSE 04:32:20 10° ESE
Cosmos 2227 Rocket 3.8 04:22:42 10° N 04:27:57 36° ENE 04:33:08 10° SE
COSMOS 2455 2.8 04:24:38 10° NNW 04:30:40 73° WSW 04:36:38 10° SSE
Lacrosse 4 Rocket 3.0 04:29:05 18° W 04:31:12 26° NW 04:34:59 10° N
Cosmos 968 Rocket 4.2 04:27:07 15° S 04:31:21 50° ESE 04:36:27 10° NNE
Cosmos 1503 Rocket 3.9 04:28:22 24° SSW 04:31:34 84° WNW 04:36:46 10° NNE
UNKNOWN OBJECT B 2.8 04:34:13 10° N 04:38:13 85° WNW 04:40:53 21° SSW
Delta 2 Rocket 3.7 04:37:14 21° WSW 04:39:59 56° S 04:44:53 10° E
ARIANE 5 R/B 2.9 04:35:59 10° N 04:40:44 46° WNW 04:43:49 21° SW
Cosmos 2221 Rocket 3.9 04:39:25 10° NNW 04:43:39 46° W 04:46:36 18° SSW
ATLAS CENTAUR R/B 1.5 04:45:54 19° SSW 04:48:21 60° ESE 04:52:16 10° NE
CZ-2D R/B 3.6 04:44:58 10° N 04:49:12 61° WNW 04:52:06 18° SSW
Cosmos 1633 2.4 04:46:49 18° S 04:49:22 84° W 04:53:00 10° N
BREEZE-M DEB (TANK) 4.3 04:50:52 10° WNW 04:55:33 35° N 04:58:13 10° ENE
ASTEX 1 3.6 04:51:19 10° SSE 04:56:18 79° E 05:01:19 10° N
Cosmos 1727 Rocket 4.1 04:51:33 14° SSW 04:56:44 58° W 05:02:55 10° N
Cosmos 1656 4.0 04:53:38 10° S 04:59:14 65° ESE 05:04:51 10° NNE
Cosmos 374 Rocket 4.4 04:55:34 10° NW 05:00:14 82° WSW 05:04:08 10° SSE
Cosmos 2173 Rocket 4.2 04:55:19 10° N 05:01:25 72° E 05:07:28 10° SSE
Meteor 1-25 Rocket 4.2 04:56:52 10° S 05:02:26 84° E 05:08:00 10° N
ADEOS 3.8 04:58:50 10° N 05:03:57 56° WNW 05:08:38 12° SSW
Cosmos 540 Rocket 4.1 05:02:51 10° NW 05:07:26 34° W 05:11:58 10° SSW
Centaur D AC-28 4.2 05:00:04 10° W 05:08:34 20° SW 05:12:29 10° S
Meteor 2-12 Rocket 4.4 05:10:08 10° N 05:16:18 83° W 05:22:23 10° S
Helios 1A Rocket 3.8 05:12:40 10° N 05:16:19 33° WNW 05:19:42 11° SW
Cosmos 1812 3.4 05:13:36 10° NNW 05:17:11 36° W 05:20:45 10° SSW
Lacrosse 5 3.9 05:14:19 10° NNW 05:18:53 33° NE 05:23:27 10° E
ATLAS 2A CENTAUR R/B 3.9 05:11:50 11° SW 05:19:25 26° S 05:24:01 10° SE
Cosmos 1602 4.5 05:15:43 10° S 05:19:28 53° E 05:23:14 10° NNE
CZ-2D R/B 4.1 05:17:03 10° NNW 05:19:30 13° WNW 05:21:58 10° W
Cosmos 1697 Rocket 3.1 05:16:29 10° S 05:22:03 64° ESE 05:27:40 10° NNE
NOSS 3-1 (C) 4.1 05:15:52 10° NW 05:23:38 83° WSW 05:32:12 10° SSE
ADEOS II 2.5 05:18:48 10° N 05:23:52 49° WNW 05:28:54 10° SW
USA 81 4.2 05:20:42 10° SSW 05:25:51 56° W 05:31:03 10° N
CZ-4B R/B 3.8 05:24:07 10° NNE 05:28:07 52° E 05:32:17 10° S
PSLV R/B 2.8 05:26:15 10° WNW 05:29:12 67° SSW 05:32:08 10° ESE
Cosmos 2016 Rocket 4.2 05:23:14 10° N 05:29:39 84° E 05:36:00 10° S
CZ-3C R/B 4.4 05:26:13 10° SSW 05:31:14 13° SSE 05:41:47 10° SE
Cosmos 1782 Rocket 4.3 05:27:10 10° S 05:31:28 56° E 05:35:46 10° NNE
Cosmos 1378 Rocket 3.6 05:27:39 10° N 05:32:07 86° W 05:36:34 10° S
Okean 3 3.7 05:28:41 10° NNW 05:32:45 50° W 05:36:48 10° SSW
Cosmos 1802 Rocket 4.0 05:27:29 10° N 05:33:44 76° W 05:39:53 10° S
Cosmos 2219 4.2 05:30:38 10° NW 05:35:11 26° WSW 05:39:43 10° SSW
Cosmos 2369 3.8 05:30:13 10° SSW 05:35:48 65° WNW 05:41:27 10° NNE
Cosmos 2061 Rocket 4.0 05:31:07 10° NNW 05:37:19 72° W 05:43:33 10° S
NOSS 7 (E) 4.4 05:34:56 10° SSW 05:38:13 66° ESE 05:41:12 10° NE
Cosmos 1733 Rocket 4.3 05:35:11 10° SW 05:38:46 25° WNW 05:42:23 10° NNW
Gbstr 26 Del rocket 4.3 05:35:56 10° S 05:39:11 28° SE 05:42:44 10° ENE
Milstar 3 Cent rocket 3.9 05:32:50 10° WSW 05:45:59 44° S 05:52:39 10° ESE
